Location: Zagreb
(45.8000°N, 16.0000°E)
Time: 17:45:58
(UTC+01:00)

Vanguard 2 Rocket - Pass Details

Date: 23 December 2025
Orbit: 553 x 3287 km, 32.9° (Epoch: 17 January)

Event Time Altitude Azimuth Distance (km) Brightness Sun altitude
Rises 04:53:56 0° 221° (SW) 6,153 10.8 -27.0°
Reaches altitude 10° 04:57:58 10° 214° (SW) 5,451 10.6 -26.3°
Maximum altitude 05:13:37 41° 152° (SSE) 4,162 10.4 -23.6°
Drops below altitude 10° 05:30:55 10° 92° (E) 6,028 12.2 -20.6°
Sets 05:35:38 0° 86° (E) 6,841 12.7 -19.8°
